When you browse on this site, cookies collect data to enhance your experience and personalize the content and advertising you see.
Visit our Privacy Policy to learn more. By continuing to use the site, you agree to this use of cookies and data.
  • In Deutschland
  • Länderverzeichnis
  • Für 7 Tage
  • Wassertemperatur
  • Satellitenkarten
  • Wetterkarte
  • Widgets
  • user-avatar
    Anmelden

    Stündliche Wetter Mauritius

    Heute, 19 Juni, Mittwoch

    Zeit Temperatur Niederschläge Wind Luftdruck Luftfeuchtigkeit
    00:00 +19°C° 0 mm 6 m/S 727 mmHg 73%
    01:00 +19°C° 0 mm 6 m/S 727 mmHg 73%
    02:00 +19°C° 0 mm 6 m/S 727 mmHg 73%
    03:00 +19°C° 0 mm 6 m/S 727 mmHg 73%
    04:00 +19°C° 0 mm 6 m/S 726 mmHg 73%
    05:00 +19°C° 0 mm 6 m/S 727 mmHg 72%
    06:00 +19°C° 0 mm 6 m/S 727 mmHg 71%
    07:00 +19°C° 0 mm 6 m/S 727 mmHg 70%
    08:00 +20°C° 0 mm 6 m/S 727 mmHg 68%
    09:00 +21°C° 0 mm 7 m/S 727 mmHg 66%
    10:00 +22°C° 0 mm 7 m/S 727 mmHg 63%
    11:00 +22°C° 0 mm 7 m/S 727 mmHg 59%
    12:00 +22°C° 0 mm 7 m/S 727 mmHg 56%
    13:00 +22°C° 0 mm 7 m/S 726 mmHg 52%
    14:00 +22°C° 0 mm 7 m/S 726 mmHg 56%
    15:00 +22°C° 0 mm 7 m/S 726 mmHg 60%
    16:00 +21°C° 0 mm 7 m/S 726 mmHg 64%
    17:00 +21°C° 0.1 mm 7 m/S 726 mmHg 68%
    18:00 +21°C° 0.1 mm 8 m/S 726 mmHg 72%
    19:00 +20°C° 0.1 mm 8 m/S 727 mmHg 76%
    20:00 +20°C° 0 mm 8 m/S 727 mmHg 74%
    21:00 +20°C° 0 mm 8 m/S 727 mmHg 71%
    22:00 +20°C° 0 mm 7 m/S 728 mmHg 69%
    23:00 +20°C° 0 mm 8 m/S 728 mmHg 70%

    Morgen, 20 Juni, Donnerstag

    Zeit Temperatur Niederschläge Wind Luftdruck Luftfeuchtigkeit
    00:00 +20°C° 0 mm 8 m/S 727 mmHg 70%
    01:00 +20°C° 0 mm 8 m/S 727 mmHg 71%
    02:00 +18°C° 0 mm 8 m/S 727 mmHg 72%
    03:00 +18°C° 0 mm 8 m/S 727 mmHg 73%
    04:00 +18°C° 0 mm 8 m/S 727 mmHg 74%
    05:00 +18°C° 0 mm 8 m/S 727 mmHg 76%
    06:00 +18°C° 0 mm 8 m/S 727 mmHg 78%
    07:00 +18°C° 0 mm 8 m/S 727 mmHg 80%
    08:00 +20°C° 0.1 mm 8 m/S 728 mmHg 76%
    09:00 +21°C° 0.1 mm 8 m/S 728 mmHg 72%
    10:00 +22°C° 0.1 mm 9 m/S 729 mmHg 68%
    11:00 +22°C° 0 mm 9 m/S 728 mmHg 68%
    12:00 +22°C° 0 mm 9 m/S 728 mmHg 68%
    13:00 +22°C° 0 mm 9 m/S 728 mmHg 68%
    14:00 +22°C° 0 mm 9 m/S 727 mmHg 69%
    15:00 +22°C° 0 mm 9 m/S 727 mmHg 70%
    16:00 +21°C° 0 mm 10 m/S 727 mmHg 71%
    17:00 +21°C° 0 mm 10 m/S 727 mmHg 72%
    18:00 +19°C° 0 mm 10 m/S 728 mmHg 74%
    19:00 +19°C° 0 mm 10 m/S 728 mmHg 75%
    20:00 +19°C° 0 mm 10 m/S 728 mmHg 75%
    21:00 +19°C° 0 mm 10 m/S 729 mmHg 76%
    22:00 +19°C° 0 mm 10 m/S 729 mmHg 76%
    23:00 +19°C° 0 mm 10 m/S 729 mmHg 76%

    übermorgen, 21 Juni, Freitag

    Zeit Temperatur Niederschläge Wind Luftdruck Luftfeuchtigkeit
    00:00 +19°C° 0 mm 10 m/S 728 mmHg 76%
    01:00 +19°C° 0 mm 10 m/S 728 mmHg 75%
    02:00 +19°C° 0 mm 10 m/S 728 mmHg 76%
    03:00 +19°C° 0 mm 10 m/S 728 mmHg 77%
    04:00 +18°C° 0 mm 10 m/S 727 mmHg 77%
    05:00 +18°C° 0 mm 10 m/S 728 mmHg 76%
    06:00 +18°C° 0 mm 10 m/S 728 mmHg 75%
    07:00 +18°C° 0 mm 10 m/S 728 mmHg 74%
    08:00 +19°C° 0 mm 10 m/S 728 mmHg 70%
    09:00 +21°C° 0 mm 11 m/S 729 mmHg 66%
    10:00 +21°C° 0 mm 11 m/S 729 mmHg 62%
    11:00 +22°C° 0 mm 10 m/S 729 mmHg 63%
    12:00 +22°C° 0 mm 10 m/S 728 mmHg 63%
    13:00 +22°C° 0 mm 10 m/S 728 mmHg 64%
    14:00 +22°C° 0.2 mm 10 m/S 728 mmHg 66%
    15:00 +22°C° 0.2 mm 10 m/S 728 mmHg 68%
    16:00 +22°C° 0.2 mm 10 m/S 727 mmHg 70%
    17:00 +21°C° 0.1 mm 9 m/S 728 mmHg 70%
    18:00 +21°C° 0.1 mm 9 m/S 728 mmHg 70%
    19:00 +19°C° 0.1 mm 9 m/S 728 mmHg 70%
    20:00 +19°C° 0 mm 9 m/S 728 mmHg 72%
    21:00 +19°C° 0 mm 9 m/S 728 mmHg 73%
    22:00 +19°C° 0 mm 9 m/S 728 mmHg 75%
    23:00 +19°C° 0.1 mm 9 m/S 728 mmHg 77%

    22 Juni, Samstag

    Zeit Temperatur Niederschläge Wind Luftdruck Luftfeuchtigkeit
    00:00 +19°C° 0.1 mm 9 m/S 728 mmHg 79%
    01:00 +19°C° 0.1 mm 9 m/S 727 mmHg 81%
    02:00 +19°C° 0.3 mm 9 m/S 727 mmHg 81%
    03:00 +19°C° 0.3 mm 9 m/S 727 mmHg 81%
    04:00 +19°C° 0.3 mm 9 m/S 726 mmHg 81%
    05:00 +18°C° 0.1 mm 10 m/S 727 mmHg 80%
    06:00 +18°C° 0.1 mm 9 m/S 727 mmHg 79%
    07:00 +18°C° 0.1 mm 9 m/S 727 mmHg 79%
    08:00 +19°C° 0 mm 9 m/S 727 mmHg 75%
    09:00 +19°C° 0 mm 9 m/S 727 mmHg 72%
    10:00 +21°C° 0 mm 9 m/S 728 mmHg 68%
    11:00 +21°C° 0 mm 9 m/S 727 mmHg 67%
    12:00 +21°C° 0 mm 9 m/S 727 mmHg 65%
    13:00 +22°C° 0 mm 8 m/S 726 mmHg 63%
    14:00 +22°C° 0 mm 8 m/S 726 mmHg 64%
    15:00 +22°C° 0 mm 8 m/S 726 mmHg 64%
    16:00 +21°C° 0 mm 8 m/S 726 mmHg 65%
    17:00 +21°C° 0 mm 7 m/S 726 mmHg 67%
    18:00 +20°C° 0 mm 7 m/S 726 mmHg 70%
    19:00 +20°C° 0 mm 7 m/S 726 mmHg 72%
    20:00 +20°C° 0.1 mm 7 m/S 726 mmHg 74%
    21:00 +20°C° 0.1 mm 7 m/S 726 mmHg 76%
    22:00 +20°C° 0.1 mm 7 m/S 726 mmHg 78%
    23:00 +20°C° 0.1 mm 6 m/S 726 mmHg 77%

    23 Juni, Sonntag

    Zeit Temperatur Niederschläge Wind Luftdruck Luftfeuchtigkeit
    00:00 +20°C° 0.1 mm 6 m/S 726 mmHg 76%
    01:00 +20°C° 0.1 mm 6 m/S 725 mmHg 75%
    02:00 +20°C° 0 mm 6 m/S 725 mmHg 76%
    03:00 +19°C° 0 mm 5 m/S 725 mmHg 76%
    04:00 +19°C° 0 mm 5 m/S 724 mmHg 76%
    05:00 +19°C° 0 mm 5 m/S 724 mmHg 79%
    06:00 +19°C° 0 mm 5 m/S 725 mmHg 81%
    07:00 +19°C° 0 mm 6 m/S 725 mmHg 84%
    08:00 +20°C° 0.2 mm 6 m/S 725 mmHg 80%
    09:00 +21°C° 0.2 mm 6 m/S 725 mmHg 76%
    10:00 +22°C° 0.2 mm 7 m/S 725 mmHg 73%
    11:00 +22°C° 0.2 mm 7 m/S 725 mmHg 71%
    12:00 +23°C° 0.2 mm 7 m/S 724 mmHg 70%
    13:00 +23°C° 0.2 mm 7 m/S 724 mmHg 69%
    14:00 +22°C° 0.3 mm 7 m/S 724 mmHg 72%
    15:00 +22°C° 0.3 mm 7 m/S 724 mmHg 74%
    16:00 +21°C° 0.3 mm 7 m/S 724 mmHg 77%
    17:00 +21°C° 0.4 mm 7 m/S 724 mmHg 79%
    18:00 +21°C° 0.4 mm 7 m/S 724 mmHg 81%
    19:00 +20°C° 0.4 mm 7 m/S 724 mmHg 83%
    20:00 +20°C° 0.1 mm 7 m/S 725 mmHg 82%
    21:00 +20°C° 0.1 mm 7 m/S 725 mmHg 80%
    22:00 +21°C° 0.1 mm 6 m/S 725 mmHg 79%
    23:00 +20°C° 0.1 mm 6 m/S 725 mmHg 81%

    24 Juni, Montag

    Zeit Temperatur Niederschläge Wind Luftdruck Luftfeuchtigkeit
    00:00 +20°C° 0.1 mm 6 m/S 725 mmHg 82%
    01:00 +20°C° 0.1 mm 6 m/S 724 mmHg 83%
    02:00 +20°C° 0.1 mm 6 m/S 724 mmHg 83%
    03:00 +20°C° 0.1 mm 6 m/S 724 mmHg 84%
    04:00 +20°C° 0.1 mm 5 m/S 724 mmHg 84%
    05:00 +20°C° 0 mm 5 m/S 724 mmHg 85%
    06:00 +20°C° 0 mm 5 m/S 724 mmHg 85%
    07:00 +20°C° 0 mm 5 m/S 724 mmHg 85%
    08:00 +21°C° 0 mm 5 m/S 724 mmHg 80%
    09:00 +22°C° 0 mm 6 m/S 725 mmHg 76%
    10:00 +22°C° 0 mm 6 m/S 725 mmHg 71%
    11:00 +23°C° 0 mm 5 m/S 725 mmHg 69%
    12:00 +23°C° 0 mm 5 m/S 724 mmHg 68%
    13:00 +25°C° 0 mm 5 m/S 724 mmHg 66%
    14:00 +23°C° 0.1 mm 5 m/S 724 mmHg 68%
    15:00 +23°C° 0.1 mm 5 m/S 724 mmHg 69%
    16:00 +23°C° 0.1 mm 5 m/S 724 mmHg 70%
    17:00 +22°C° 0.1 mm 4 m/S 724 mmHg 74%
    18:00 +22°C° 0.1 mm 4 m/S 724 mmHg 77%
    19:00 +21°C° 0.1 mm 4 m/S 724 mmHg 81%
    20:00 +21°C° 0.3 mm 4 m/S 724 mmHg 82%
    21:00 +21°C° 0.3 mm 5 m/S 724 mmHg 84%
    22:00 +21°C° 0.3 mm 5 m/S 725 mmHg 85%
    23:00 +20°C° 0.1 mm 5 m/S 724 mmHg 85%
    Mehr zeigen